Location: *
(50.5492°N, 7.7469°E)
Time: 10:45:10
(UTC+00:00)

Falcon 9 debris - Pass Details

Date: 21 October 2019
Orbit: 430 x 438 km, 53.0° (Epoch: 13 November)

Event Time Altitude Azimuth Distance (km) Brightness Sun altitude
Rises 16:59:11 0° 289° (WNW) 2,406 ? -6.0°
Reaches altitude 10° 17:01:17 10° 289° (WNW) 1,538 ? -6.3°
Maximum altitude 17:04:45 88° 200° (SSW) 439 ? -6.9°
Drops below altitude 10° 17:08:12 10° 112° (ESE) 1,538 ? -7.4°
Enters shadow 17:08:47 - 112° (ESE) 1,776 ? -7.5°
